百武彗星

C/1996 B2 ( Hyakutake )

English version
Home page
Updated on September 3, 1997

---------------------------------------------------------------------

・ プロフィール

発見日 1996年1月30日
発見光度 11.0等
発見者 百武裕司 (日本)

・ 写真集

・ 軌道要素

   The following improved orbital elements by Kenji Muraoka, 
  are from 799 observations 1996 Jan. 1 to Nov. 2, including 
  9 Planets, Moon and 5 minor planets perturbations and non-
  gravitational effect of style II.
   The mean residual is +/- 0.83 arc seconds.

      Epoch  =  1996 Apr. 27.0  TT       JDT = 2450200.5
          T  =  1996 May   1.39481       +/- 0.00002 (m.e.) TT
       Peri. =  130.17654                +/- 0.00010
       Node  =  188.04546                +/- 0.00001   (2000.0)
       Incl. =  124.92379                +/- 0.00004
          q  =    0.2302239              +/- 0.0000006 AU
          e  =    0.9997730              +/- 0.0000006
        1/a  =   +0.0009862              +/- 0.0000026 1/AU
         A1  =   +2.56                   +/- 0.03
         A2  =   +0.0485                 +/- 0.0056

・ 星図

・ 1995年 7月12日〜1996年 3月26日
・ 1996年 3月25日〜1996年 4月17日
・ 1996年 4月 1日〜1996年 6月28日
・ 1996年 5月27日〜1997年 3月 3日

・ 光度変化

        m1 = 6.5 + 5 logΔ + 10.0 log r  [   ,-85]  (              〜1996年 2月 6日)
        m1 = 5.2 + 5 logΔ +  8.7 log r  [-85,-20]  (1996年 2月 6日〜1996年 4月11日)
        m1 = 4.6 + 5 logΔ +  5.0 log r  [-20, 35]  (1996年 4月11日〜1996年 6月 5日)
        m1 = 4.6 + 5 logΔ +  8.2 log r  [ 35, 90]  (1996年 6月 5日〜1996年 7月30日)
        m1 = 2.0 + 5 logΔ + 18.0 log r  [ 90,150]  (1996年 7月30日〜1996年 9月28日)
        m1 = 6.3 + 5 logΔ + 15.0 log r  [150,   ]  (1996年 9月28日〜              )

---------------------------------------------------------------------

軌道要素は村岡健治氏の計算によるものです。
星図は StellaNavigator Ver.2.0 for Windows (アストロアーツ 編著 / アスキー出版局刊) で作成したものです。
光度グラフはComet for Windowsで作成したものです。

---------------------------------------------------------------------

Copyright(C) Seiichi Yoshida (comet@aerith.net). All rights reserved.